Powrót do katalogu

STARLINK-31014

AktywnyŁącznośćVLEO
NORAD 58538·PAYLOAD·🇺🇸 United States

Wystrzelony Dec 8, 2023 z Vandenberg Space Force Base

Loading…

Następne Przeloty (najbliższe 24 godziny)

TLE

ŚwieżeSource: CelesTrak SupGP

Epoka: Sep 15, 2026, 03:08 UTC

1 58538C 23192H   26258.13104167 -.00035146  00000+0 -10377-2 0  2580
2 58538  53.1576 258.8116 0001337  90.2488 354.3563 15.34429015    18

Śledź STARLINK-31014 w czasie rzeczywistym z AllMySat

Download on the App Store